Regional Weather Roundup
Issued by NWS

Home | Current Version | Previous Version | Text Only | Print | Product List | Glossary Off
Versions: 1 2 3 4 5 6 7 8 9 10 11 12 13 14 15 16 17 18 19 20 21 22 23 24 25 26 27 28 29 30 31 32 33 34 35 36 37 38 39 40 41 42 43 44 45 46 47 48 49 50

000
ASUS43 KOAX 230610
RWRNE

WEATHER ROUNDUP FOR NEBRASKA
NATIONAL WEATHER SERVICE OMAHA NE
100 AM CDT TUE SEP 23 2014

NOTES: SATELLITE DATA IS BEING USED TO AUGMENT CLOUD COVER ABOVE
       12000 FEET.
       "FAIR" INDICATES FEW OR NO CLOUDS BELOW 12,000 FEET WITH NO
       SIGNIFICANT WEATHER AND/OR OBSTRUCTIONS TO VISIBILITY.

  * THESE STATIONS DO NOT REPORT WEATHER SUCH AS RAIN...SNOW OR FOG.

NEZ001>004-019>022-054>056-230700-
NEBRASKA PANHANDLE

CITY           SKY/WX    TMP DP  RH WIND       PRES   REMARKS
SCOTTSBLUFF    CLEAR     54  53  97 E7        30.02F
6HR MIN TEMP:  54; 6HR MAX TEMP:  69;

ALLIANCE       CLEAR     54  52  93 SE12      30.01F
6HR MIN TEMP:  53; 6HR MAX TEMP:  65;

CHADRON        CLEAR     58  55  90 W5        29.95F
6HR MIN TEMP:  57; 6HR MAX TEMP:  68;

KIMBALL        PTCLDY    55  52  89 SW7       30.07F
SIDNEY         MOCLDY    61  57  87 SW9       30.07S
6HR MIN TEMP:  58; 6HR MAX TEMP:  69; 6HR PCP:  0.19;

$$

NEZ057>060-069>072-079>082-230700-
SOUTHWEST NEBRASKA

CITY           SKY/WX    TMP DP  RH WIND       PRES   REMARKS
NORTH PLATTE   CLOUDY    58  52  80 SE9       30.06F
6HR MIN TEMP:  57; 6HR MAX TEMP:  59; 6HR PCP:  0.02;

IMPERIAL       CLOUDY    62  55  77 S18G25    30.04F
6HR MIN TEMP:  61; 6HR MAX TEMP:  71; 6HR PCP: TRACE;

LEXINGTON      RAIN      58  55  89 SE3       30.10F
MCCOOK         RAIN      59  56  89 S23G35    30.04F FOG
6HR MIN TEMP:  59; 6HR MAX TEMP:  74; 6HR PCP:  0.40;

OGALLALA       MOCLDY    60  56  86 CALM      30.04F
$$

NEZ005>010-023>029-035>040-094-230700-
NORTH CENTRAL NEBRASKA

CITY           SKY/WX    TMP DP  RH WIND       PRES   REMARKS
VALENTINE      CLOUDY    60  53  77 S8        30.03S
6HR MIN TEMP:  59; 6HR MAX TEMP:  64; 6HR PCP:  0.02;

AINSWORTH      CLOUDY    58  53  86 SE14G22   30.05S
BROKEN BOW     CLOUDY    59  53  80 S14       30.09F
6HR MIN TEMP:  58; 6HR MAX TEMP:  61; 6HR PCP:  0.32;

O`NEILL        RAIN      59  57  92 S13G20    30.12S
ORD            LGT RAIN  58  55  90 S10G20    30.11S
6HR MIN TEMP:  58; 6HR MAX TEMP:  68; 6HR PCP:  0.17;

THEDFORD       CLOUDY    59  53  78 S10G20    30.05F
$$

NEZ041-046>049-061>064-073>077-083>087-230700-
SOUTH CENTRAL NEBRASKA

CITY           SKY/WX    TMP DP  RH WIND       PRES   REMARKS
GRAND ISLAND   CLOUDY    60  54  80 SE8       30.14F
6HR MIN TEMP:  59; 6HR MAX TEMP:  69; 6HR PCP:  0.05;

AURORA         LGT RAIN  61  50  68 SE5       30.15F
HASTINGS       LGT RAIN  60  50  69 SE10      30.14F
6HR MIN TEMP:  60; 6HR MAX TEMP:  69; 6HR PCP:  0.02;

HEBRON         CLOUDY    61  49  66 SE3       30.16S
HOLDREGE       RAIN      57  53  86 SE15      30.13S
KEARNEY *      CLOUDY    55  52  88 SE15      30.14F
YORK           CLOUDY    59  52  77 S6        30.16F
$$

NEZ011>018-030>034-042>045-230700-
NORTHEAST NEBRASKA

CITY           SKY/WX    TMP DP  RH WIND       PRES   REMARKS
NORFOLK        CLOUDY    62  51  67 S8        30.13F
6HR MIN TEMP:  62; 6HR MAX TEMP:  68; 6HR PCP: TRACE;

ALBION         LGT RAIN  58  53  81 S6        30.14S
BLAIR          MOCLDY    63  50  64 SE6       30.17F
COLUMBUS *     CLOUDY    61  50  67 S7        30.16F
FREMONT        CLOUDY    64  51  62 S7        30.18S
TEKAMAH        MOCLDY    57  53  86 CALM      30.17S
6HR MIN TEMP:  55; 6HR MAX TEMP:  68;

WAYNE          CLOUDY    60  53  79 S7        30.15S
$$

NEZ050>053-065>068-078-088>093-230700-
SOUTHEAST NEBRASKA

CITY           SKY/WX    TMP DP  RH WIND       PRES   REMARKS
LINCOLN        CLOUDY    62  51  67 S7        30.18S
6HR MIN TEMP:  62; 6HR MAX TEMP:  69;

OMAHA EPPLEY   MOCLDY    62  50  64 S7        30.18F
6HR MIN TEMP:  61; 6HR MAX TEMP:  70;

BEATRICE       CLOUDY    61  50  68 SE7       30.17S
FALLS CITY     CLOUDY    56  52  86 S5        30.20F
6HR MIN TEMP:  55; 6HR MAX TEMP:  69;

NEBRASKA CITY    N/A     59  48  68 S6        30.19F
PLATTSMOUTH    CLOUDY    60  50  69 SE7       30.18F
$$

NEZ044-045-051>053-067-230700-
OMAHA AREA

CITY           SKY/WX    TMP DP  RH WIND       PRES   REMARKS
OMAHA EPPLEY   MOCLDY    62  50  64 S7        30.18F
6HR MIN TEMP:  61; 6HR MAX TEMP:  70;

BLAIR          MOCLDY    63  50  64 SE6       30.17F
FREMONT        CLOUDY    64  51  62 S7        30.18S
MILLARD        CLOUDY    62  53  72 SE5       30.18S
OFFUTT AFB     CLOUDY    60  56  88 E6        30.18F
PLATTSMOUTH    CLOUDY    60  50  69 SE7       30.18F
WAHOO          MOCLDY    60  52  76 S3        30.17S
$$


USA.gov is the U.S. government's official web portal to all federal, state and local government web resources and services.